Location: Feydey
(46.3431°N, 7.0106°E)
Time: 22:02:19
(UTC+00:00)

Daily predictions for brighter satellites

Satellite Brightness Start Highest point End
(mag) Time Altitude Azimuth Time Altitude Azimuth Time Altitude Azimuth
COSMO-SKYMED 1 2.6 17:45:54 10° NNE 17:50:16 89° ESE 17:54:37 10° SSW
Ariane Rocket 4.4 17:49:44 10° ESE 17:53:12 19° ENE 17:56:43 10° NNE
H-2A R/B 2.6 17:49:16 10° SE 17:53:51 37° ENE 17:58:34 10° N
Cosmos 1689 Rocket 3.1 17:51:10 10° N 17:54:04 51° WNW 17:56:56 10° SSW
SJ 16-02 4.0 17:51:36 10° WSW 17:55:04 22° WNW 17:58:34 10° N
Cosmos 2263 Rocket 3.3 17:52:55 10° SW 17:58:19 49° WNW 18:03:45 10° NNE
USA 116 4.1 17:56:56 10° NNE 18:00:28 41° E 18:04:25 10° S
Cosmos 1939 Rocket 3.6 17:57:40 10° S 18:01:45 61° W 18:05:53 10° NNW
Cosmos 1844 Rocket 3.0 17:57:31 10° S 18:02:46 45° ESE 18:08:04 10° NE
Cosmos 372 Rocket 4.0 17:59:24 10° SSW 18:04:37 80° ESE 18:09:51 10° NNE
Cosmos 1707 2.6 18:01:31 10° N 18:05:21 68° E 18:09:10 10° SSE
Cosmos 1626 4.2 18:05:48 10° NE 18:06:32 10° ENE 18:07:15 10° ENE
NOSS 3-2 (C) 4.2 17:59:31 10° NW 18:06:51 61° NE 18:15:09 10° SE
CZ-2C R/B 3.6 18:06:00 10° SSW 18:07:04 11° SSW 18:08:07 10° S
Cosmos 1844 4.1 18:04:56 10° S 18:10:13 41° ESE 18:15:30 10° NE
Cosmos 2034 Rocket 4.3 18:04:43 10° SSE 18:10:41 44° E 18:16:38 10° NNE
ISS -2.9 18:07:53 10° W 18:11:10 48° NNW 18:14:28 10° ENE
NOSS 3-4 (A) 4.3 18:06:56 10° SSE 18:11:40 26° ESE 18:16:37 10° ENE
NOSS 3-4 (C) 4.3 18:07:04 10° SSE 18:11:47 26° ESE 18:16:42 10° ENE
USA 186 3.4 18:11:03 12° ESE 18:12:54 18° ENE 18:15:13 10° NNE
Meteor 1-12 Rocket 4.3 18:08:12 10° S 18:14:00 67° E 18:19:45 10° NNE
Cosmos 1300 Rocket 3.5 18:14:57 10° S 18:19:19 69° E 18:23:46 10° NNE
Okean 1 Rocket 4.0 18:18:56 10° SE 18:22:40 27° E 18:26:25 10° NNE
Sich 1 Rocket 4.0 18:19:11 10° SSW 18:23:41 68° W 18:28:16 10° N
Cosmos 2298 Rocket 4.0 18:20:34 10° SSW 18:25:54 82° ESE 18:31:16 10° NNE
CENTAUR R/B 3.2 18:17:58 10° NW 18:25:58 72° NE 18:34:45 10° SE
Resurs 01 Rocket 3.7 18:25:52 11° ENE 18:26:37 11° ENE 18:27:57 10° NE
Cosmos 1833 Rocket 4.0 18:22:45 10° N 18:27:09 23° NE 18:30:11 15° E
CSL-04 Debris 4.2 18:24:30 10° SSE 18:29:54 87° WSW 18:35:20 10° NNW
CSL-04 Rocket 3.7 18:26:24 10° SSE 18:31:51 88° WSW 18:37:25 10° NNW
Cosmos 1766 4.2 18:30:21 10° SSE 18:33:39 26° E 18:37:00 10° NNE
Okean 2 Rocket 3.2 18:29:24 10° S 18:33:53 82° W 18:38:22 10° N
ATLAS 2AS CENTAUR R/B 3.4 18:26:49 10° S 18:34:01 40° ESE 18:41:15 10° NE
YAOGAN 1 3.4 18:30:19 10° S 18:34:32 53° W 18:38:47 10° NNW
Cosmos 1025 Rocket 3.1 18:30:22 10° N 18:34:47 83° W 18:39:10 10° S
ATLAS 3B R/B 3.5 18:31:49 10° NNW 18:38:04 37° NE 18:42:35 18° E
SWAS 4.4 18:36:26 10° NNW 18:40:45 90° ENE 18:44:38 12° SSE
Abrixas rocket 1.7 18:38:18 10° WNW 18:41:09 83° SSW 18:42:11 35° ESE
CREW DRAGON DEMO-1 DEB 2.7 18:40:04 10° WNW 18:43:06 85° NNE 18:44:16 34° ESE
Cosmos 1536 Rocket 3.6 18:40:05 10° N 18:44:35 88° WSW 18:49:03 10° S
Cosmos 1125 Rocket 3.4 18:41:14 10° SSW 18:46:32 77° ESE 18:51:52 10° NNE
SJ-6B 3.2 18:48:31 29° ESE 18:49:48 38° ENE 18:53:21 10° N
CZ-4 R/B 3.6 18:48:37 10° SSW 18:52:15 28° W 18:55:54 10° NW
CZ-2C R/B 4.0 18:49:02 10° S 18:54:16 53° W 18:59:48 10° NNW
Cosmos 1464 Rocket 4.4 18:48:44 10° SSW 18:54:48 65° W 19:01:00 10° N
USA 238 DEB 4.3 18:48:03 10° NW 18:55:12 63° WSW 19:02:35 10° SSE
USA 238 4.3 18:48:10 10° NW 18:55:18 64° WSW 19:02:42 10° SSE
Cosmos 1674 2.6 18:53:04 10° N 18:56:57 87° E 19:00:17 13° S
Cosmos 2285 Rocket 3.9 18:50:57 10° SSW 18:57:13 75° ESE 19:03:35 10° NNE
Cosmos 2026 Rocket 4.2 18:51:32 10° N 18:57:44 50° ENE 19:02:16 19° SE
Cosmos 1092 Rocket 3.9 18:51:50 10° N 18:57:58 65° E 19:04:08 10° SSE
MOS 1 Rocket 3.3 18:58:55 10° N 19:03:17 70° WNW 19:07:31 10° SSW
FREGAT/IRIS 3.8 19:04:41 26° NNE 19:04:41 26° NNE 19:06:07 10° N
TSX-5 3.9 19:04:40 10° SSW 19:08:25 62° ESE 19:13:15 10° NE
ARGOS 3.5 19:04:28 10° S 19:09:48 66° WSW 19:15:10 10° NNW
CZ-2C R/B 2.6 19:08:00 10° NNE 19:13:35 67° ESE 19:19:10 10° S
Cosmos 1340 Rocket 3.6 19:15:11 35° NE 19:15:11 35° NE 19:17:54 10° NNE
Cosmos 2279 Rocket 4.4 19:12:59 31° SE 19:14:59 39° E 19:20:43 10° NNE
Cosmos 1733 3.0 19:13:47 27° S 19:15:46 72° E 19:19:35 10° NNE
MOS 1 4.2 19:13:05 20° SSE 19:17:10 80° ENE 19:22:54 10° NNW
GRACE-FO 1 4.5 19:15:19 10° N 19:19:02 68° E 19:19:03 68° E
Lacrosse 5 rocket 3.2 19:15:37 10° NW 19:19:13 24° NNE 19:20:43 20° NE
GRACE-FO 2 4.5 19:15:41 10° N 19:19:24 68° E 19:19:25 68° E
Cosmos 2082 Rocket 3.1 19:15:28 10° N 19:20:25 31° NE 19:21:17 29° ENE
BREEZE-M DEB (TANK) 4.0 19:19:48 10° W 19:23:13 44° SSW 19:27:36 24° SSE
DMSP B5D2-2 4.0 19:18:07 10° NNE 19:23:25 70° ESE 19:28:40 10° S
BREEZE-M R/B 3.6 19:13:57 10° WSW 19:23:35 82° NNW 19:24:25 51° ENE
OBJECT-B 2.1 19:28:48 33° N 19:28:48 33° N 19:30:46 10° N
Cosmos 1805 3.8 19:23:52 10° SSW 19:27:42 57° WNW 19:31:35 10° N
Cosmos 2142 Rocket 4.5 19:24:37 22° SSE 19:28:37 57° E 19:34:41 10° NNE
Ariane Rocket 3.2 19:28:06 20° S 19:31:39 68° WSW 19:36:44 10° NNW
SL-08 RB Rocket 4.5 19:27:52 13° S 19:31:47 50° W 19:36:13 10° NNW
Milstar 3 Cent rocket 4.2 19:29:21 10° SSW 19:32:09 13° S 19:32:39 13° S
H-2A R/B 3.8 19:28:59 10° SSW 19:33:20 30° W 19:37:51 10° NNW
USA 234 4.4 19:38:14 24° SSE 19:38:14 24° SSE 19:41:13 10° S
Cosmos 1269 Rocket 4.2 19:32:01 10° NNW 19:37:19 70° WSW 19:39:33 35° S
Cosmos 1626 2.5 19:38:33 10° NNW 19:42:02 62° WNW 19:42:02 62° WNW
Okean 1-7 Rocket 4.0 19:38:06 10° N 19:41:51 49° NE 19:41:51 49° NE
MetOp-A 4.3 19:40:20 28° S 19:43:11 69° WSW 19:48:33 10° NNW
USA 186 3.7 19:42:35 24° WSW 19:43:24 28° W 19:46:17 10° NW
COSMOS 2406 3.1 19:40:55 10° NNW 19:46:37 86° WSW 19:47:56 55° SSE
Cosmos 1844 Rocket 4.4 19:41:48 10° WSW 19:46:48 33° NW 19:51:51 10° NNE
ISS -1.9 19:45:23 10° WNW 19:47:46 29° NNW 19:47:46 29° NNW
Cosmos 2278 Rocket 2.3 19:44:57 10° SSW 19:51:32 55° ENE 19:56:10 10° NNE
Lacrosse 4 Rocket 2.6 19:50:13 10° NNW 19:52:52 34° N 19:52:52 34° N
Meteor 1-24 Rocket 4.2 19:53:32 10° NNW 19:59:01 59° W 20:01:37 31° SSW
Cosmos 909 Rocket 4.1 19:52:55 10° NNW 19:59:20 56° NE 19:59:55 54° ENE
Cosmos 2266 Rocket 4.3 19:55:28 10° N 20:00:34 46° NE 20:00:34 46° NE
NOSS 3-4 (A) 3.7 19:56:06 10° SW 20:01:58 65° NW 20:08:20 10° NE
NOSS 3-4 (C) 3.7 19:56:12 10° SW 20:02:05 65° NW 20:08:26 10° NE
SL-14 R/B 4.3 19:58:22 10° NNW 20:01:55 44° W 20:01:55 44° W
Resurs 01 Rocket 2.2 20:03:26 52° N 20:03:26 52° N 20:06:51 10° NNW
Meteor 2-19 Rocket 4.2 19:57:07 10° N 20:03:16 80° E 20:03:47 73° SE
Cosmos 1833 Rocket 2.7 20:06:03 10° NNW 20:11:42 75° WSW 20:11:54 74° SW
Cosmos 2251 Rocket 3.8 20:09:14 10° NNW 20:13:44 60° N 20:13:44 60° N
CENTAUR R/B 4.3 20:09:09 10° NW 20:16:29 36° WSW 20:21:59 18° SSW
ARIANE 5 R/B 4.2 20:20:05 29° N 20:20:05 29° N 20:22:15 10° N
SPOT 3 Rocket 4.0 20:20:50 53° WSW 20:21:04 53° W 20:26:07 10° NNW
ATLAS 2AS CENTAUR R/B 3.4 20:16:57 10° SW 20:24:50 61° NW 20:32:38 10° NE
ATLAS 3B R/B 2.8 20:22:24 10° NW 20:29:13 67° WSW 20:29:50 64° SSW
Cosmos 1655 Rocket 4.1 20:31:42 10° NNW 20:37:50 72° W 20:37:50 72° W
Lacrosse 5 rocket 3.9 20:54:41 10° NW 20:56:20 22° NW 20:56:20 22° NW
Cosmos 2082 Rocket 3.4 20:59:19 10° NW 21:03:08 38° WNW 21:03:08 38° WNW
Terra 4.3 21:21:45 17° N 21:21:45 17° N 21:22:52 10° N
Cosmos 2278 Rocket 4.2 21:33:01 20° W 21:35:07 25° NW 21:39:45 10° N
